| time (UTC) | temp F | wind direction | speed MPH | gust MPH | rain 1hr in | rain 24hr in | rain mn in | humidity % | barometer mb |
| 20260504050003 | 48 | 60 | 0.0 | 2.0 | 0.00 | 0.00 | 0.00 | 57 | 1017.0 |
| 20260504043004 | 48 | 80 | 0.0 | 0.0 | 0.00 | 0.00 | 0.00 | 54 | 1017.0 |
| 20260504042003 | 48 | 22 | 0.0 | 0.0 | 0.00 | 0.00 | 0.00 | 54 | 1016.8 |
| 20260504041004 | 48 | 22 | 0.0 | 0.0 | 0.00 | 0.00 | 0.00 | 54 | 1016.6 |
| 20260504040004 | 48 | 22 | 0.0 | 0.0 | 0.00 | 0.00 | 0.00 | 54 | 1016.6 |
| 20260504034004 | 49 | 288 | 0.0 | 0.0 | 0.00 | 0.00 | 0.00 | 51 | 1016.5 |
| 20260504033004 | 50 | 289 | 0.0 | 0.0 | 0.00 | 0.00 | 0.00 | 50 | 1016.3 |
| 20260504032004 | 50 | 289 | 0.0 | 0.0 | 0.00 | 0.00 | 0.00 | 48 | 1016.3 |
| 20260504031004 | 50 | 289 | 0.0 | 0.0 | 0.00 | 0.00 | 0.00 | 48 | 1016.2 |
| 20260504030004 | 51 | 262 | 0.0 | 1.0 | 0.00 | 0.00 | 0.00 | 47 | 1016.1 |
| 20260504024005 | 51 | 262 | 0.0 | 1.0 | 0.00 | 0.00 | 0.00 | 44 | 1016.1 |
| 20260504023004 | 51 | 262 | 0.0 | 1.0 | 0.00 | 0.00 | 0.00 | 42 | 1016.2 |
| 20260504022003 | 52 | 262 | 0.0 | 2.0 | 0.00 | 0.00 | 0.00 | 41 | 1016.1 |
| 20260504021004 | 52 | 262 | 0.0 | 2.0 | 0.00 | 0.00 | 0.00 | 41 | 1016.2 |
| 20260504020005 | 52 | 263 | 0.0 | 4.0 | 0.00 | 0.00 | 0.00 | 41 | 1016.2 |
| 20260504015004 | 52 | 254 | 2.0 | 3.0 | 0.00 | 0.00 | 0.00 | 41 | 1016.2 |
| 20260504014005 | 52 | 254 | 2.0 | 2.0 | 0.00 | 0.00 | 0.00 | 40 | 1016.0 |
| 20260504013005 | 53 | 254 | 0.0 | 1.0 | 0.00 | 0.00 | 0.00 | 41 | 1015.9 |
| 20260504012004 | 53 | 254 | 1.0 | 2.0 | 0.00 | 0.00 | 0.00 | 41 | 1015.9 |
| 20260504011004 | 54 | 254 | 2.0 | 2.0 | 0.00 | 0.00 | 0.00 | 41 | 1015.8 |
| 20260504010004 | 54 | 255 | 0.0 | 2.0 | 0.00 | 0.00 | 0.00 | 38 | 1015.7 |
| 20260504005004 | 54 | 260 | 0.0 | 0.0 | 0.00 | 0.00 | 0.00 | 38 | 1015.5 |
| 20260504004004 | 55 | 260 | 0.0 | 0.0 | 0.00 | 0.00 | 0.00 | 38 | 1015.5 |
| 20260504003005 | 56 | 260 | 0.0 | 0.0 | 0.00 | 0.00 | 0.00 | 36 | 1015.3 |
| 20260504002004 | 57 | 262 | 0.0 | 2.0 | 0.00 | 0.00 | 0.00 | 34 | 1015.2 |
| 20260504001004 | 57 | 261 | 0.0 | 1.0 | 0.00 | 0.00 | 0.00 | 32 | 1015.1 |
| 20260504000004 | 58 | 261 | 0.0 | 1.0 | 0.00 | 0.00 | 0.00 | 32 | 1015.0 |
| 20260503235005 | 59 | 262 | 1.0 | 4.0 | 0.00 | 0.00 | 0.00 | 29 | 1014.9 |
| 20260503233005 | 60 | 117 | 0.0 | 7.0 | 0.00 | 0.00 | 0.00 | 25 | 1015.0 |
| 20260503232004 | 60 | 248 | 0.0 | 7.0 | 0.00 | 0.00 | 0.00 | 23 | 1015.0 |
| 20260503231005 | 60 | 251 | 2.0 | 5.0 | 0.00 | 0.00 | 0.00 | 23 | 1014.9 |
| 20260503230003 | 60 | 219 | 0.0 | 4.0 | 0.00 | 0.00 | 0.00 | 22 | 1014.7 |
| 20260503225003 | 60 | 5 | 0.0 | 9.0 | 0.00 | 0.00 | 0.00 | 23 | 1014.7 |
| 20260503224004 | 60 | 355 | 0.0 | 10.0 | 0.00 | 0.00 | 0.00 | 21 | 1014.8 |
| 20260503223003 | 61 | 263 | 0.0 | 9.0 | 0.00 | 0.00 | 0.00 | 21 | 1014.9 |
| 20260503222004 | 61 | 217 | 4.0 | 6.0 | 0.00 | 0.00 | 0.00 | 21 | 1014.8 |
| 20260503221004 | 61 | 241 | 6.0 | 9.0 | 0.00 | 0.00 | 0.00 | 20 | 1014.8 |
| 20260503220005 | 61 | 319 | 4.0 | 9.0 | 0.00 | 0.00 | 0.00 | 22 | 1014.8 |
| 20260503215005 | 61 | 248 | 1.0 | 7.0 | 0.00 | 0.00 | 0.00 | 21 | 1014.9 |
| 20260503213004 | 62 | 116 | 4.0 | 7.0 | 0.00 | 0.00 | 0.00 | 20 | 1014.8 |
| 20260503205004 | 62 | 266 | 2.0 | 10.0 | 0.00 | 0.00 | 0.00 | 21 | 1014.8 |
| 20260503202004 | 62 | 71 | 5.0 | 12.0 | 0.00 | 0.00 | 0.00 | 21 | 1015.0 |
| 20260503201003 | 62 | 84 | 5.0 | 20.0 | 0.00 | 0.00 | 0.00 | 21 | 1015.1 |
| 20260503195005 | 61 | 60 | 2.0 | 9.0 | 0.00 | 0.00 | 0.00 | 23 | 1015.2 |
| 20260503194005 | 61 | 334 | 0.0 | 11.0 | 0.00 | 0.00 | 0.00 | 24 | 1015.2 |
| 20260503193004 | 60 | 55 | 6.0 | 9.0 | 0.00 | 0.00 | 0.00 | 24 | 1015.3 |
| 20260503192005 | 61 | 47 | 4.0 | 18.0 | 0.00 | 0.00 | 0.00 | 24 | 1015.5 |
| 20260503190005 | 60 | 117 | 4.0 | 8.0 | 0.00 | 0.00 | 0.00 | 23 | 1015.5 |
| 20260503185005 | 60 | 209 | 9.0 | 12.0 | 0.00 | 0.00 | 0.00 | 23 | 1015.8 |
| 20260503184003 | 61 | 72 | 4.0 | 12.0 | 0.00 | 0.00 | 0.00 | 23 | 1015.8 |
| 20260503183005 | 60 | 286 | 8.0 | 12.0 | 0.00 | 0.00 | 0.00 | 25 | 1015.9 |
| 20260503182006 | 61 | 57 | 4.0 | 13.0 | 0.00 | 0.00 | 0.00 | 21 | 1015.8 |
| 20260503181004 | 60 | 254 | 4.0 | 13.0 | 0.00 | 0.00 | 0.00 | 23 | 1015.9 |
| 20260503180004 | 60 | 46 | 6.0 | 11.0 | 0.00 | 0.00 | 0.00 | 24 | 1016.0 |
| 20260503175004 | 60 | 67 | 4.0 | 10.0 | 0.00 | 0.00 | 0.00 | 24 | 1016.0 |
| 20260503174004 | 59 | 53 | 3.0 | 8.0 | 0.00 | 0.00 | 0.00 | 22 | 1016.1 |
| 20260503173004 | 58 | 340 | 1.0 | 16.0 | 0.00 | 0.00 | 0.00 | 23 | 1016.1 |
| 20260503172004 | 58 | 60 | 5.0 | 7.0 | 0.00 | 0.00 | 0.00 | 26 | 1016.1 |
| 20260503171004 | 57 | 56 | 5.0 | 12.0 | 0.00 | 0.00 | 0.00 | 26 | 1016.2 |
| 20260503131005 | 47 | 64 | 5.0 | 7.0 | 0.00 | 0.00 | 0.00 | 45 | 1016.5 |
| 20260503081003 | 44 | 28 | 0.0 | 4.0 | 0.00 | 0.00 | 0.00 | 56 | 1013.8 |